Location: *
(48.4867°N, 33.1033°E)
Time: 08:51:50
(UTC+00:00)

Daily predictions for brighter satellites

Satellite Brightness Start Highest point End
(mag) Time Altitude Azimuth Time Altitude Azimuth Time Altitude Azimuth
STARLINK-1084 4.3 16:40:11 10° WNW 16:44:12 46° N 16:48:13 10° E
STARLINK-1100 3.6 16:40:21 10° WNW 16:44:25 79° NNE 16:48:27 10° ESE
STARLINK-1216 4.4 16:41:16 10° SSW 16:44:52 32° SE 16:48:27 10° ENE
STARLINK-1271 3.4 16:42:02 10° SW 16:44:59 41° SE 16:47:58 10° ENE
STARLINK-1270 3.4 16:42:29 10° SW 16:45:26 41° SE 16:48:25 10° ENE
STARLINK-1154 3.3 16:42:54 10° SW 16:45:52 42° SE 16:48:51 10° ENE
Cosmos 1331 Rocket 4.0 16:41:03 10° NNW 16:46:12 63° ENE 16:51:19 10° SE
STARLINK-1197 3.3 16:43:48 10° SW 16:46:46 42° SE 16:49:46 10° ENE
Cosmos 2219 Rocket 3.3 16:41:32 10° SW 16:47:02 49° NW 16:52:31 10° NNE
STARLINK-1189 3.3 16:44:15 10° SW 16:47:14 43° SE 16:50:13 10° ENE
Cosmos 1733 3.6 16:44:25 10° SSE 16:47:57 39° E 16:51:29 10° NNE
STARLINK-1187 3.2 16:45:02 10° SW 16:48:03 49° SSE 16:51:07 10° ENE
STARLINK-1188 3.3 16:45:09 10° SW 16:48:07 44° SE 16:51:07 10° ENE
STARLINK-1198 3.3 16:45:24 10° SW 16:48:23 44° SE 16:51:23 10° ENE
STARLINK-1235 3.0 16:45:40 10° SW 16:48:45 55° SSE 16:51:51 10° ENE
STARLINK-1083 3.6 16:44:57 10° WNW 16:49:00 83° NNE 16:53:02 10° ESE
STARLINK-1098 4.3 16:45:11 10° WNW 16:49:12 47° N 16:53:13 10° E
STARLINK-1237 4.3 16:45:50 10° SSW 16:49:29 34° SE 16:53:09 10° ENE
STARLINK-1199 3.3 16:47:04 10° SW 16:50:04 45° SSE 16:53:06 10° ENE
STARLINK-1191 3.2 16:47:31 10° SW 16:50:31 46° SSE 16:53:34 10° ENE
STARLINK-1210 3.2 16:47:58 10° SW 16:50:58 46° SSE 16:54:00 10° ENE
STARLINK-1221 3.2 16:48:25 10° SW 16:51:26 47° SSE 16:54:29 10° ENE
STARLINK-1219 3.2 16:48:51 10° SW 16:51:53 47° SE 16:54:56 10° ENE
STARLINK-1222 3.2 16:49:17 10° SW 16:52:19 47° SSE 16:55:22 10° ENE
STARLINK-1211 3.2 16:49:45 10° SW 16:52:46 48° SSE 16:55:50 10° ENE
Cosmos 1674 2.8 16:49:11 10° NNW 16:52:58 80° W 16:56:42 10° S
STARLINK-1214 3.2 16:50:12 10° SW 16:53:14 48° SSE 16:56:17 10° ENE
STARLINK-1125 3.6 16:49:33 10° WNW 16:53:36 87° NNE 16:57:39 10° ESE
STARLINK-1245 3.1 16:50:41 10° SW 16:53:42 48° SSE 16:56:44 10° ENE
STARLINK-67 2.3 16:51:26 10° WSW 16:54:00 85° SSE 16:56:37 10° ENE
FREGAT/IRIS 2.9 16:51:27 10° SE 16:54:00 37° ENE 16:56:35 10° N
STARLINK-1202 4.2 16:50:21 10° SSW 16:54:04 37° SE 16:57:47 10° ENE
SL-14 R/B 3.8 16:50:16 10° N 16:54:08 40° ENE 16:57:56 10° SE
STARLINK-1238 3.1 16:51:06 10° SW 16:54:08 49° SSE 16:57:12 10° ENE
STARLINK-1123 4.3 16:50:11 10° WNW 16:54:13 48° N 16:58:15 10° E
Cosmos 1943 Rocket 3.2 16:50:16 10° NNW 16:55:01 28° NE 16:59:46 10° ESE
STARLINK-1205 3.1 16:52:03 10° SW 16:55:03 50° SSE 16:58:06 10° ENE
STARLINK-1204 3.1 16:52:28 10° SW 16:55:29 50° SSE 16:58:31 10° ENE
S3M 4.0 16:49:24 10° S 16:55:44 73° E 17:02:08 10° NNE
KORONAS-FOTON 3.9 16:52:00 10° NNW 16:55:51 81° W 16:59:38 10° S
Cosmos 1980 3.8 16:50:40 10° SSW 16:56:21 89° ESE 17:02:05 10° NNE
STARLINK-1109 3.6 16:53:49 10° WNW 16:57:52 89° SW 17:01:48 11° ESE
Cosmos 1386 Rocket 4.4 16:52:34 10° N 16:58:41 81° E 17:04:41 10° S
STARLINK-1246 4.1 16:55:05 10° SSW 16:58:53 40° SE 17:02:43 10° ENE
STARLINK-1097 4.2 16:55:10 10° WNW 16:59:12 49° N 17:03:11 10° E
SL-08 ROCKET BODY 4.4 16:53:31 10° N 16:59:42 81° E 17:05:45 10° S
Ariane Rocket 3.0 16:56:53 10° SSE 17:01:58 81° ENE 17:07:04 10° NNW
STARLINK-1091 3.6 16:58:28 10° WNW 17:02:32 85° SSW 17:06:16 12° ESE
Cosmos 1766 3.3 16:59:13 10° S 17:03:12 85° E 17:07:13 10° N
STARLINK-1099 4.2 17:00:10 10° WNW 17:04:13 50° NNE 17:07:59 12° E
Cosmos 2084 4.3 17:01:44 10° WSW 17:06:09 55° NW 17:10:34 10° NE
MONITOR-E 3.9 17:03:45 10° SSE 17:06:20 52° ENE 17:08:57 10° N
Cosmos 1110 Rocket 4.1 17:01:44 10° NNW 17:07:01 81° WSW 17:12:13 10° SSE
STARLINK-1224 3.9 17:04:04 10° SW 17:07:55 45° SE 17:11:47 10° ENE
Cosmos 1455 Rocket 3.0 17:04:07 10° S 17:08:24 66° E 17:12:45 10° NNE
STARLINK-1104 4.1 17:05:10 10° WNW 17:09:13 52° NNE 17:12:46 13° E
SL-16 R/B 2.5 17:04:32 10° S 17:09:51 43° ESE 17:15:11 10° NE
Cosmos 2333 Rocket 4.0 17:05:09 10° WSW 17:10:19 34° NW 17:15:29 10° NNE
NOSS 2-1 (E) 3.9 17:07:26 10° WSW 17:10:45 51° NW 17:14:33 10° NE
STARLINK-1225 3.8 17:08:42 10° SW 17:12:36 49° SE 17:16:30 10° ENE
Cosmos 1892 Rocket 4.0 17:09:17 10° NNW 17:13:45 67° W 17:18:11 10° S
STARLINK-1144 4.1 17:10:08 10° WNW 17:14:12 53° NNE 17:17:32 15° E
STARLINK-1203 3.6 17:11:01 10° SW 17:14:51 54° SSE 17:18:40 10° ENE
Cosmos 1626 Rocket 3.8 17:11:09 10° N 17:15:25 47° ENE 17:19:38 10° SSE
STARLINK-1072 3.7 17:11:52 10° WNW 17:15:51 71° SSW 17:19:02 15° SE
ARGOS Delta rocket 4.2 17:10:58 10° S 17:16:04 82° WSW 17:21:28 10° NNW
ATLAS 2AS CENTAUR R/B 4.1 17:09:31 10° NW 17:16:21 31° NNE 17:22:48 10° E
STARLINK-1230 3.7 17:13:17 10° SW 17:17:12 52° SE 17:21:01 11° ENE
BREEZE-M DEB (TANK) 3.3 17:11:24 10° SW 17:17:14 33° SSE 17:19:00 18° ESE
STARLINK-1103 4.0 17:15:06 10° WNW 17:19:11 55° NNE 17:22:19 16° E
Cosmos 2084 Rocket 4.4 17:15:05 10° NNW 17:19:13 36° NE 17:22:14 16° E
Cosmos 1953 3.6 17:18:18 16° ESE 17:19:55 20° E 17:22:53 10° NE
STARLINK-1096 3.7 17:16:19 10° WNW 17:20:18 67° SSW 17:23:19 17° SE
Cosmos 1626 2.0 17:17:15 10° N 17:20:58 74° E 17:24:39 10° SSE
Okean 1-7 Rocket 4.0 17:17:01 10° NNW 17:21:23 65° W 17:25:43 10° S
STARLINK-1243 3.6 17:17:56 10° SW 17:21:53 56° SSE 17:25:32 12° ENE
USA 186 2.0 17:19:16 10° S 17:22:42 82° WSW 17:26:07 10° NNW
Cosmos 1602 Rocket 4.0 17:18:38 10° N 17:22:56 44° ENE 17:26:43 13° SE
STARLINK-1101 4.0 17:20:06 10° WNW 17:24:13 57° NNE 17:27:07 18° E
STARLINK-1234 2.8 17:21:26 10° WSW 17:24:25 78° NNW 17:26:52 14° ENE
STARLINK-1079 3.8 17:20:47 10° WNW 17:24:45 63° SSW 17:27:36 18° SE
H-2A R/B 2.2 17:20:34 10° S 17:25:53 79° WSW 17:31:07 10° NNW
Cosmos 883 Rocket 4.4 17:19:52 10° S 17:26:02 75° E 17:32:19 10° NNE
STARLINK-1236 3.6 17:22:33 10° SW 17:26:31 60° SSE 17:30:00 13° ENE
USA 234 3.4 17:21:20 10° ENE 17:27:44 53° SE 17:34:05 10° SSW
STARLINK-1102 3.9 17:25:05 10° WNW 17:29:11 59° NNE 17:31:53 20° E
STARLINK-1116 3.9 17:25:15 10° WNW 17:29:13 59° SSW 17:31:54 19° SE
Cosmos 2297 3.8 17:27:25 10° NNW 17:33:06 81° WSW 17:38:48 10° SSE
ADEOS Rocket 4.5 17:26:37 10° N 17:33:09 45° WNW 17:39:02 10° SW
STARLINK-1111 3.9 17:30:04 10° WNW 17:34:11 61° NNE 17:36:40 22° E
Cosmos 1544 Rocket 3.6 17:31:26 10° S 17:35:50 87° W 17:40:17 10° N
STARLINK-1269 3.5 17:31:53 10° SW 17:35:54 69° SSE 17:39:02 16° ENE
CZ-2C R/B 3.8 17:32:25 10° NNE 17:37:08 56° E 17:41:45 10° S
Aureole 2 Rocket 3.6 17:34:26 10° N 17:37:29 27° ENE 17:38:18 24° E
STARLINK-1094 4.1 17:34:14 10° WNW 17:38:09 52° SW 17:40:31 22° SE
STARLINK-1073 3.8 17:35:03 10° WNW 17:39:10 64° NNE 17:41:27 25° E
Cosmos 2237 Rocket 3.2 17:34:45 10° SW 17:40:12 50° NW 17:45:42 10° NNE
ERBS 4.0 17:37:19 10° W 17:40:25 32° NNW 17:43:31 10° NE
STARLINK-1200 3.4 17:36:33 10° SW 17:40:35 73° SSE 17:43:32 18° ENE
STARLINK-1117 4.2 17:38:45 10° WNW 17:42:38 48° SW 17:44:51 23° SSE
Cosmos 2184 Rocket 4.4 17:37:17 10° N 17:43:22 45° ENE 17:47:25 20° SE
STARLINK-1121 3.7 17:40:02 10° WNW 17:44:10 67° NNE 17:46:14 28° E
Cosmos 1302 Rocket 4.1 17:39:18 10° NNW 17:44:35 81° WSW 17:49:26 12° SSE
STARLINK-1192 3.4 17:41:10 10° WSW 17:45:12 78° SSE 17:48:00 19° ENE
CZ-2C R/B 2.9 17:40:59 10° NNE 17:45:55 42° E 17:50:47 10° SSE
STARLINK-1078 4.3 17:43:15 10° WNW 17:47:06 45° SW 17:49:10 24° SSE
Cosmos 1992 Rocket 4.3 17:42:45 10° NNW 17:47:49 48° ENE 17:50:23 26° ESE
Cosmos 1269 Rocket 4.2 17:43:29 10° SSW 17:48:46 78° WNW 17:54:07 10° NNE
STARLINK-1106 3.7 17:45:00 10° WNW 17:49:08 70° NNE 17:51:00 31° E
STARLINK-1244 3.4 17:45:57 10° WSW 17:50:00 82° SSE 17:52:36 21° ENE
STARLINK-1108 4.4 17:47:47 10° WNW 17:51:36 42° SW 17:53:31 24° SSE
Cosmos 1758 Rocket 4.0 17:47:27 10° N 17:51:37 41° ENE 17:52:57 32° ESE
ARGOS 3.8 17:47:52 10° S 17:53:11 56° W 17:58:31 10° NNW
STARLINK-1201 3.2 17:50:04 10° WSW 17:53:19 66° NNW 17:54:56 27° NE
STARLINK-1112 3.6 17:50:00 10° WNW 17:54:09 73° NNE 17:55:48 35° E
STARLINK-1138 3.4 17:50:38 10° WSW 17:54:41 87° SSE 17:57:06 23° ENE
Cosmos 2251 Rocket 4.0 17:50:41 10° S 17:55:36 39° ESE 18:00:35 10° NE
STARLINK-1071 4.5 17:52:19 10° WNW 17:56:06 39° SW 17:57:51 25° SSE
SL-24 R/B 4.0 17:52:37 10° NNE 17:57:23 79° ESE 18:01:30 10° S
SL-8 R/B 3.6 17:53:02 10° W 17:57:49 90° S 18:00:04 32° E
STARLINK-1128 3.6 17:55:00 10° WNW 17:59:09 77° NNE 18:00:36 39° ESE
STARLINK-1143 3.5 17:55:24 10° WSW 17:59:27 89° NNW 18:01:42 26° ENE
STARLINK-1209 3.5 17:57:17 10° W 18:00:06 46° NNW 18:01:00 33° NE
STARLINK-1228 3.6 17:58:08 10° W 18:00:56 46° NNW 18:01:47 33° NNE
Cosmos 2315 Rocket 4.2 17:54:54 10° SSW 18:01:12 78° W 18:07:36 10° N
STARLINK-1113 3.6 17:59:58 10° WNW 18:04:08 81° NNE 18:05:23 44° ESE
Cosmos 2154 Rocket 4.5 17:58:12 10° N 18:04:15 43° ENE 18:06:44 30° ESE
Cosmos 1606 Rocket 4.3 18:06:12 33° E 18:06:12 33° E 18:09:57 10° NNE
MetOp-A 4.3 18:01:08 12° S 18:06:03 75° WSW 18:11:26 10° NNW
Cosmos 1470 3.2 18:02:40 10° SSW 18:06:31 61° WNW 18:10:23 10° N
STARLINK-1119 3.5 18:04:56 10° WNW 18:09:06 85° NNE 18:10:09 49° ESE
ERS-1 Rocket 4.1 18:08:49 25° ENE 18:09:30 26° ENE 18:13:37 10° N
STARLINK-1241 3.5 18:06:01 10° WSW 18:10:02 79° NNW 18:11:48 32° ENE
Resurs 1-3 3.8 18:07:20 21° S 18:10:16 72° WSW 18:14:41 10° NNW
IRIDIUM 104 4.3 18:06:33 10° N 18:11:48 87° W 18:15:55 17° S
CZ-2C R/B 4.5 18:07:50 10° SSW 18:12:26 34° W 18:16:53 10° NNW
STARLINK-1233 3.6 18:10:29 10° W 18:13:33 50° NNW 18:14:10 42° NNE
Cosmos 2369 Rocket 2.2 18:07:57 10° NNW 18:13:42 72° ENE 18:16:01 37° SE
USA 245 4.4 18:12:27 38° ESE 18:13:48 47° ENE 18:19:20 10° N
STARLINK-1212 3.6 18:10:56 10° W 18:14:00 50° NNW 18:14:35 42° NNE
Cosmos 1758 4.0 18:10:00 10° SSW 18:14:02 57° WNW 18:18:05 10° N
STARLINK-1114 3.5 18:09:56 10° WNW 18:14:06 89° NNE 18:14:57 56° ESE
STARLINK-1105 3.6 18:11:24 10° W 18:14:27 50° NNW 18:15:03 42° NNE
STARLINK-1239 3.6 18:10:36 10° WSW 18:14:37 76° NNW 18:16:12 35° ENE
STARLINK-1206 3.6 18:11:53 10° W 18:14:56 49° NNW 18:15:27 43° NNE
ISS -3.8 18:11:44 10° WNW 18:15:06 75° NNE 18:15:13 74° NE
STARLINK-1247 3.6 18:12:20 10° W 18:15:23 49° NNW 18:15:53 43° NNE
STARLINK-1227 3.7 18:12:44 10° W 18:15:48 49° NNW 18:16:20 43° NNE
STARLINK-1218 3.6 18:13:13 10° W 18:16:16 48° NNW 18:16:45 44° NNE
SPOT 5 4.2 18:16:52 21° ENE 18:16:52 21° ENE 18:19:57 10° NNE
STARLINK-1226 3.6 18:13:42 10° W 18:16:44 48° NNW 18:17:13 44° NNE
STARLINK-1254 3.7 18:14:05 10° W 18:17:09 48° NNW 18:17:38 43° NNE
Cosmos 2263 4.3 18:11:39 10° NNW 18:17:13 58° ENE 18:19:01 40° ESE
Resurs 01 Rocket 1.6 18:15:31 34° S 18:17:27 85° W 18:21:53 10° NNW
STARLINK-1215 3.6 18:14:36 10° W 18:17:38 48° NNW 18:18:03 44° NNE
Meteor 2-15 Rocket 4.5 18:11:56 10° SSW 18:18:01 79° W 18:24:08 10° N
STARLINK-1231 3.6 18:15:03 10° W 18:18:05 48° NNW 18:18:29 44° NNE
STARLINK-1232 3.7 18:15:57 10° W 18:18:59 47° NNW 18:19:21 44° N
STARLINK-1130 (DARKSAT) 3.5 18:14:54 10° WNW 18:19:04 86° SSW 18:19:43 62° SE
STARLINK-1240 3.7 18:15:12 10° WSW 18:19:14 73° NNW 18:20:38 38° NE
STARLINK-1217 3.7 18:16:25 10° W 18:19:26 47° NNW 18:19:47 44° N
STARLINK-1208 3.7 18:16:49 10° W 18:19:53 47° NNW 18:20:15 44° N
STARLINK-1229 3.7 18:17:18 10° W 18:20:20 47° NNW 18:20:39 45° N
STARLINK-1271 3.7 18:17:47 10° W 18:20:49 47° NNW 18:21:06 45° N
IRIDIUM 114 4.5 18:15:44 10° N 18:20:57 73° W 18:25:04 17° S
STARLINK-1270 3.7 18:18:13 10° W 18:21:15 46° NNW 18:21:32 45° N
STARLINK-1154 3.7 18:18:40 10° W 18:21:41 46° NNW 18:21:57 45° N
STARLINK-1197 3.7 18:19:35 10° W 18:22:36 46° NNW 18:22:49 45° N
STARLINK-1189 3.7 18:20:03 10° W 18:23:04 46° NNW 18:23:15 45° N
STARLINK-1216 3.7 18:19:50 10° WSW 18:23:51 69° NNW 18:25:03 42° NE
STARLINK-1187 3.8 18:20:55 10° W 18:23:57 43° NNW 18:24:10 42° N
STARLINK-1188 3.7 18:20:56 10° W 18:23:57 45° NNW 18:24:07 45° N
STARLINK-1084 3.5 18:19:53 10° WNW 18:24:02 82° SSW 18:24:30 68° SE
STARLINK-1198 3.7 18:21:11 10° W 18:24:12 45° NNW 18:24:21 45° N
Nadezhda 1 Rocket 4.1 18:21:44 32° SSE 18:24:30 54° E 18:30:41 10° NNE
STARLINK-1235 3.9 18:21:39 10° W 18:24:40 41° NNW 18:24:55 40° N
SPOT 3 Rocket 4.5 18:20:04 10° S 18:25:02 47° W 18:30:05 10° NNW
Meteor 1-21 Rocket 4.4 18:19:56 10° NNW 18:25:30 71° W 18:29:03 23° S
STARLINK-1199 3.8 18:22:53 10° W 18:25:56 45° NNW 18:26:02 45° N
STARLINK-1191 3.8 18:23:20 10° W 18:26:23 45° NNW 18:26:29 44° N
STARLINK-1210 3.8 18:23:47 10° W 18:26:50 44° NNW 18:26:54 44° N
STARLINK-1221 3.8 18:24:15 10° W 18:27:18 44° NNW 18:27:22 44° N
STARLINK-1219 3.8 18:24:42 10° W 18:27:44 44° NNW 18:27:47 44° NNW
Landsat 7 4.1 18:27:41 46° E 18:28:05 48° ENE 18:32:40 10° N
STARLINK-1222 3.9 18:25:09 10° W 18:28:11 44° NNW 18:28:12 44° NNW
STARLINK-1237 3.8 18:24:31 10° WSW 18:28:31 66° NNW 18:29:32 45° NE
STARLINK-1211 3.9 18:25:37 10° W 18:28:38 44° NNW 18:28:38 44° NNW
STARLINK-1098 3.5 18:24:51 10° WNW 18:29:00 77° SSW 18:29:16 72° SSE
STARLINK-1214 3.9 18:26:04 10° W 18:29:05 44° NNW 18:29:05 44° NNW
STARLINK-1245 3.9 18:26:34 10° W 18:29:30 43° NNW 18:29:30 43° NNW
STARLINK-1238 3.9 18:26:59 10° W 18:29:57 43° NNW 18:29:57 43° NNW
STARLINK-1205 4.0 18:27:55 10° W 18:30:48 42° NNW 18:30:48 42° NNW
STARLINK-1204 4.0 18:28:22 10° W 18:31:13 42° NNW 18:31:13 42° NNW
Cosmos 1726 2.1 18:32:03 75° NNE 18:32:03 75° NNE 18:35:32 10° N
MOS 1 Rocket 3.7 18:27:56 10° N 18:33:07 77° WNW 18:38:30 10° SSW
STARLINK-1202 3.9 18:29:08 10° WSW 18:33:08 64° NNW 18:33:59 49° NE
Cosmos 2228 3.3 18:34:16 52° NE 18:34:16 52° NE 18:37:53 10° NNE
STARLINK-1123 3.5 18:29:51 10° WNW 18:34:00 72° SSW 18:34:05 72° SSW
NOSS 3-4 (A) 4.3 18:29:07 10° NW 18:35:42 49° NE 18:38:30 34° E
NOSS 3-4 (C) 4.3 18:29:13 10° NW 18:35:48 48° NE 18:38:36 34° E
Cosmos 1943 3.4 18:37:49 47° E 18:37:49 47° E 18:42:47 10° NE
STARLINK-1246 3.9 18:34:07 10° W 18:38:08 61° NNW 18:38:50 51° NNE
Cosmos 2074 Rocket 4.1 18:32:02 10° NNW 18:38:18 75° W 18:42:01 26° S
STARLINK-1097 3.7 18:34:49 10° WNW 18:38:50 67° SW 18:38:50 67° SW
SAR-Lupe-2 4.3 18:35:27 10° NNE 18:38:00 45° NNE 18:38:00 45° NNE
Cosmos 1943 Rocket 2.5 18:33:43 10° NW 18:39:09 60° WSW 18:41:19 35° S
Cosmos 292 Rocket 4.1 18:34:31 10° NNW 18:39:15 61° WSW 18:40:35 43° SSW
STARLINK-1099 3.9 18:39:49 10° WNW 18:43:38 61° WSW 18:43:38 61° WSW
Cosmos 2058 Rocket 4.3 18:46:55 30° NE 18:46:55 30° NE 18:49:32 10° NNE
NOSS 3-3 (A) 3.8 18:40:05 10° SSW 18:45:50 62° SE 18:52:22 10° NE
NOSS 3-3 (C) 3.8 18:40:12 10° SSW 18:45:57 62° SE 18:52:28 10° NE
STARLINK-1224 4.0 18:43:08 10° W 18:47:07 57° NNW 18:47:23 55° N
STARLINK-1104 4.1 18:44:49 10° WNW 18:48:25 54° WSW 18:48:25 54° WSW
Meteor 2-10 4.3 18:47:40 20° SSW 18:51:22 71° WNW 18:56:55 10° N
Cosmos 1328 4.1 18:47:39 10° NNW 18:51:10 65° NNW 18:51:10 65° NNW
SPOT 1/Viking Rocket 3.4 18:51:28 67° E 18:51:50 70° ENE 18:57:03 10° N
STARLINK-1225 4.1 18:47:52 10° W 18:51:50 55° NNW 18:51:55 55° N
Cosmos 1610 Rocket 4.4 18:46:05 10° N 18:52:21 87° W 18:54:19 47° S
STARLINK-1203 4.2 18:49:56 10° W 18:53:42 51° NNW 18:53:42 51° NNW
STARLINK-1144 4.3 18:49:47 10° WNW 18:53:11 48° WSW 18:53:11 48° WSW
Spot 2 Rocket 3.5 18:52:55 58° S 18:53:54 77° WSW 18:59:02 10° NNW
SL-16 R/B 3.7 18:48:50 10° WSW 18:54:03 37° NW 18:59:20 10° NNE
Cosmos 1953 3.8 18:53:53 20° SW 18:56:05 36° WNW 18:59:47 10° N
STARLINK-1230 4.2 18:52:31 10° W 18:56:22 53° NNW 18:56:22 53° NNW
Cosmos 2084 Rocket 4.3 18:54:33 10° NW 18:58:46 44° WSW 18:58:46 44° WSW
STARLINK-1243 4.3 18:57:15 10° W 19:00:54 50° NNW 19:00:54 50° NNW
IGS 5A 4.0 19:05:47 57° NNW 19:05:47 57° NNW 19:09:10 10° NNW
STARLINK-1236 4.5 19:01:56 10° W 19:05:22 47° NW 19:05:22 47° NW
Cosmos 2341 Rocket 3.9 19:01:59 10° N 19:08:21 71° E 19:08:56 66° ESE
ATLAS 2AS CENTAUR R/B 2.9 19:01:00 10° NW 19:08:43 70° NE 19:10:15 56° ESE
Terra 2.6 19:10:44 41° NNE 19:10:44 41° NNE 19:14:17 10° N
USA 234 3.6 19:04:23 10° NE 19:10:52 65° NNW 19:17:19 10° WSW
CARTOSAT-1 4.4 19:13:45 44° N 19:13:45 44° N 19:16:49 10° N
Cosmos 1603 3.8 19:12:01 25° SW 19:15:24 74° WNW 19:21:03 10° NNE
Cosmos 1726 Rocket 4.3 19:18:06 52° NW 19:18:06 52° NW 19:21:53 10° N
Aureole 1 Rocket 4.2 19:24:44 65° SSE 19:25:46 74° ESE 19:32:24 10° NNE
CZ-2C R/B 4.3 19:21:34 10° N 19:26:05 31° WNW 19:30:34 10° SW
APEX 4.4 19:19:34 10° NNW 19:26:36 76° ENE 19:26:44 76° ENE
COSMOS 2455 3.3 19:22:10 10° NNW 19:28:01 49° NE 19:28:01 49° NE
Cosmos 2218 Rocket 4.0 19:31:00 10° N 19:36:38 67° NE 19:36:38 67° NE
Cosmos 1656 Rocket 4.2 19:36:03 10° NW 19:41:14 52° W 19:41:14 52° W
Cosmos 2181 Rocket 4.1 19:48:22 71° NNE 19:48:22 71° NNE 19:53:52 10° N
ERS-1 Rocket 3.8 19:48:48 46° WNW 19:48:48 46° WNW 19:52:56 10° NNW
SPOT 5 4.3 19:56:05 32° NW 19:56:05 32° NW 19:58:44 10° NNW
Cosmos 2369 Rocket 4.0 19:53:02 10° NW 19:57:07 21° W 19:57:50 20° WSW
SL-8 Rocket 4.4 20:06:11 10° NNW 20:11:56 56° WNW 20:11:56 56° WNW
CZ-4C R/B 4.2 20:12:31 10° NW 20:18:10 29° NNE 20:21:23 21° ENE
Cosmos 2366 rocket 4.4 20:13:27 10° NNW 20:18:37 56° NW 20:18:37 56° NW
NOSS 3-4 (A) 4.3 20:20:03 10° NW 20:25:57 52° W 20:25:57 52° W
NOSS 3-4 (C) 4.3 20:20:09 10° NW 20:26:03 52° W 20:26:03 52° W
Mayak 1.5 20:29:31 10° N 20:30:20 15° N 20:30:20 15° N
Cosmos 1697 Rocket 4.1 20:40:40 10° NNW 20:44:20 32° NNE 20:44:20 32° NNE
Terra 4.2 20:49:36 18° WNW 20:49:36 18° WNW 20:51:27 10° NW
USA 234 4.2 20:47:15 10° ENE 20:53:20 43° N 20:59:26 10° WNW
ATLAS 2AS CENTAUR R/B 4.0 20:52:40 10° NW 20:57:41 31° W 20:57:41 31° W
Cosmos 1980 Rocket 3.8 21:05:44 10° NNW 21:09:09 29° NNE 21:09:09 29° NNE
Cosmos 2082 Rocket 4.5 21:33:29 16° NE 21:33:29 16° NE 21:34:45 10° NE
SL-16 R/B 4.5 21:36:32 19° ENE 21:37:20 20° NE 21:41:36 10° N
ATLAS 5 CENTAUR R/B 4.3 21:57:41 18° NNE 21:57:41 18° NNE 21:59:20 10° NNE
Cosmos 1833 Rocket 4.4 22:03:30 28° NNE 22:03:30 28° NNE 22:06:02 10° NNE
CZ-4C R/B 3.3 22:00:57 10° NW 22:06:33 57° N 22:06:33 57° N
Cosmos 2344 4.2 22:09:15 10° NW 22:18:46 88° SW 22:20:04 75° SSE
Resurs 1-4 Rocket 4.5 22:16:07 10° NE 22:17:48 16° ENE 22:17:48 16° ENE
SL-16 R/B 3.7 22:26:05 10° NNW 22:29:37 33° N 22:29:37 33° N
USA 234 3.9 22:29:25 10° E 22:35:40 50° NNE 22:41:56 10° WNW
Cosmos 2322 Rocket 3.6 22:41:05 10° NNW 22:44:37 34° N 22:44:37 34° N
Cosmos 2360 Rocket 3.8 22:42:46 10° NNW 22:47:41 30° NE 22:47:51 30° NE
Cosmos 1980 Rocket 4.4 22:49:41 10° NW 22:50:54 17° NW 22:50:54 17° NW
Cosmos 2082 Rocket 3.4 23:15:19 36° NNW 23:15:19 36° NNW 23:19:07 10° NNE
SL-16 R/B 3.0 23:21:37 56° NNW 23:21:37 56° NNW 23:26:25 10° NNW
Cosmos 1607 4.3 23:31:23 59° NNE 23:31:23 59° NNE 23:36:29 10° NE
ATLAS 5 CENTAUR R/B 4.3 23:39:12 13° NNW 23:41:09 16° N 23:44:22 10° NNE
USA 267 3.5 23:36:17 10° ENE 23:42:05 58° ESE 23:42:05 58° ESE
Cosmos 1833 Rocket 4.5 23:45:10 22° NW 23:45:10 22° NW 23:49:23 10° N
Cosmos 2219 Rocket 3.7 23:47:16 10° NNW 23:52:21 33° NE 23:57:22 10° ESE
